[[{"header":{"parameterUnit":"m.s-1","parameterCategory":1,"la1":30.2991,"la2":30.254,"lo1":-89.0895,"lo2":-89.0444,"dy":0.0017,"dx":0.0017,"nx":28,"ny":28,"refTime":"2024-07-18T21:00:00:Z","depth":0,"parameterNumber":2,"parameterNumberName":"U-component_of_WINDS"},"data":[0,0,0,0,0,0,0,0,0,0,0,0,0,0,0,0,0,0,0,0,0,0,0,0,0,0,0,0,0,0,0,0,0,0,0,0,0,0,0,0,0,0,0,0,0,0,0,0,0,0,0,0,0,0,0,0,0,0,-1.7453,-1.7452,0,-1.7379,-1.7378,-1.7377,-1.7298,-1.7297,-1.7296,-1.7295,-1.7219,-1.7218,-1.7217,0,0,0,0,0,0,0,0,0,0,0,0,0,-1.7528,-1.7527,-1.7453,-1.7452,-1.7451,-1.7379,-1.7378,-1.7377,-1.7298,-1.7297,-1.7296,-1.7295,-1.7219,-1.7218,-1.7216,0,0,0,0,0,0,0,0,0,0,0,0,0,-1.7479,-1.7526,-1.7453,-1.7404,-1.7398,-1.7379,-1.7378,-1.7376,-1.7299,-1.7297,-1.7295,-1.7294,-1.7219,-1.7218,-1.7216,-1.724,0,0,-1.7212,-1.7211,0,0,0,0,0,0,0,0,-1.7481,-1.7476,-1.7412,-1.7407,-1.7401,-1.7346,-1.7376,-1.7331,-1.7299,-1.7337,-1.7295,-1.7293,-1.7262,-1.7257,-1.7247,-1.7236,-1.7233,-1.7212,-1.7211,-1.721,-1.721,0,0,0,0,0,0,0,-1.7485,-1.7479,-1.7424,-1.7411,-1.7405,-1.7385,-1.7376,-1.7367,-1.731,-1.7333,-1.7327,-1.732,-1.7259,-1.7248,-1.7244,-1.7232,-1.7212,-1.721,-1.7209,-1.7209,-1.7236,-1.7237,0,0,0,0,0,0,-1.7496,-1.7482,-1.7426,-1.7421,-1.7438,-1.7385,-1.7375,-1.7365,-1.7309,-1.7299,-1.7321,-1.7316,-1.7252,-1.7246,-1.7241,-1.7264,-1.721,-1.7209,-1.7208,-1.7234,-1.7236,-1.7238,0,0,0,0,0,0,-1.7498,-1.7492,-1.7429,-1.745,-1.7441,-1.7385,-1.7375,-1.7365,-1.7354,-1.73,-1.729,-1.7321,-1.725,-1.7244,-1.7241,-1.7261,-1.7208,-1.7206,-1.7232,-1.7235,-1.7237,-1.7311,0,0,0,0,0,0,-1.75,-1.7493,-1.7501,-1.7451,-1.744,-1.743,-1.7376,-1.7365,-1.7352,-1.7345,-1.7297,-1.7288,-1.7248,-1.7243,-1.7239,-1.7258,-1.7205,-1.723,-1.7233,-1.7236,-1.7307,-1.7316,-1.7324,0,0,0,0,0,-1.7503,-1.7525,-1.7502,-1.7496,-1.7449,-1.7431,-1.7425,-1.7379,-1.7354,-1.7361,-1.7327,-1.7289,-1.7259,-1.7244,-1.7238,-1.7257,-1.7229,-1.7233,-1.7236,-1.7303,-1.7314,-1.7324,0,0,0,0,0,0,-1.758,-1.7518,-1.7491,-1.7498,-1.7471,-1.7418,-1.7427,-1.7393,-1.7372,-1.7366,-1.731,-1.73,-1.7304,-1.728,-1.7264,-1.7276,-1.7239,-1.7241,-1.7291,-1.7301,-1.731,-1.7315,-1.7204,0,0,0,0,0,-1.7598,-1.7588,-1.7535,-1.7546,-1.7533,-1.7483,-1.7473,-1.744,-1.7409,-1.7397,-1.7362,-1.7334,-1.7318,-1.7308,-1.7291,-1.7303,-1.7291,-1.7313,-1.7322,-1.7329,-1.7332,-1.7335,-1.7344,-1.725,-1.725,-1.725,0,0,-1.7634,-1.7599,-1.7597,-1.756,-1.7535,-1.7526,-1.7473,-1.7466,-1.7459,-1.7396,-1.7391,-1.7365,-1.7329,-1.7334,-1.7334,-1.7314,-1.7355,-1.7333,-1.734,-1.7338,-1.734,-1.7349,-1.7357,-1.7253,-1.7252,-1.7252,0,0,-1.7696,-1.7669,-1.7674,-1.765,-1.7612,-1.7578,-1.758,-1.7533,-1.7512,-1.7506,-1.7459,-1.7449,-1.7423,-1.7399,-1.7384,-1.7436,-1.74,-1.7432,-1.7476,-1.7481,-1.7488,-1.7494,-1.7512,-1.7519,-1.7435,-1.7436,-1.7436,0,-1.7746,-1.773,-1.7682,-1.7677,-1.7662,-1.7605,-1.761,-1.7589,-1.7548,-1.7538,-1.7517,-1.7482,-1.7454,-1.7452,-1.7464,-1.7454,-1.7454,-1.7437,-1.7491,-1.7497,-1.7502,-1.7518,-1.7525,-1.744,-1.7439,-1.7439,-1.7438,0,-1.7793,-1.7783,-1.7793,-1.7754,-1.774,-1.7741,-1.7691,-1.7683,-1.7652,-1.762,-1.7614,-1.7579,-1.7552,-1.755,-1.7519,-1.7543,-1.7531,-1.7501,-1.7462,-1.7516,-1.753,-1.7536,-1.7445,-1.7444,-1.7443,-1.7442,0,0,-1.7901,-1.7835,-1.7839,-1.782,-1.7774,-1.7766,-1.7763,-1.7737,-1.7731,-1.7705,-1.7701,-1.768,-1.7651,-1.7634,-1.76,-1.7604,-1.7646,-1.7573,-1.7571,-1.7587,-1.7669,-1.7691,-1.7699,-1.7623,-1.7624,-1.7624,-1.7671,0,-1.7954,-1.7946,-1.7902,-1.7907,-1.7896,-1.7842,-1.784,-1.7811,-1.7782,-1.7768,-1.7736,-1.7721,-1.7685,-1.7674,-1.7676,-1.7641,-1.7662,-1.7637,-1.7618,-1.7617,-1.7627,-1.7707,-1.773,-1.7777,-1.7677,-1.7678,-1.7678,0,-1.8014,-1.7991,-1.7995,-1.7948,-1.7943,-1.7941,-1.7914,-1.7902,-1.7868,-1.7846,-1.7827,-1.7789,-1.7783,-1.7747,-1.7738,-1.7722,-1.7711,-1.7693,-1.7694,-1.7689,-1.7651,-1.7704,-1.779,-1.7797,-1.7687,-1.7686,-1.7685,0,-1.8091,-1.8061,-1.8059,-1.8045,-1.7991,-1.7991,-1.7969,-1.7933,-1.792,-1.7896,-1.7887,-1.7863,-1.7849,-1.7831,-1.7787,-1.7766,-1.7782,-1.7743,-1.7763,-1.7764,-1.7768,-1.7769,-1.7854,-1.7764,-1.7764,-1.7764,-1.7763,0,-1.8154,-1.8159,-1.8093,-1.8092,-1.8095,-1.8044,-1.8048,-1.802,-1.7989,-1.7981,-1.7933,-1.7927,-1.7869,-1.7856,-1.7822,-1.7819,-1.7813,-1.7795,-1.7785,-1.7798,-1.7801,-1.779,-1.7785,-1.7765,-1.7765,-1.7765,-1.7764,0,-1.8241,-1.8197,-1.8191,-1.814,-1.8127,-1.8132,-1.8088,-1.8084,-1.8052,-1.8042,-1.8037,-1.7986,-1.7968,-1.7923,-1.7893,-1.787,-1.7875,-1.7859,-1.7887,-1.788,-1.7902,-1.7901,-1.7983,-1.7991,-1.7897,-1.7898,-1.7899,0,-1.8283,-1.8285,-1.8234,-1.8226,-1.8205,-1.8192,-1.8178,-1.8128,-1.8115,-1.8077,-1.8078,-1.8056,-1.8036,-1.8009,-1.7969,-1.7946,-1.7928,-1.7958,-1.7924,-1.7937,-1.7927,-1.7927,-1.7926,-1.7966,-1.7967,-1.7968,-1.7969,0,-1.8364,-1.8342,-1.8324,-1.8298,-1.8283,-1.8261,-1.8236,-1.8231,-1.8175,-1.8163,-1.8144,-1.8129,-1.8098,-1.8076,-1.8047,-1.8023,-1.7986,-1.798,-1.7983,-1.7996,-1.8012,-1.8003,-1.7906,-1.7978,-1.7977,-1.7977,-1.7976,-1.7976,-1.8429,-1.8427,-1.8391,-1.8373,-1.8348,-1.8326,-1.832,-1.8286,-1.8269,-1.824,-1.8212,-1.8195,-1.8161,-1.8117,-1.8096,-1.8082,-1.8063,-1.8068,-1.8069,-1.8071,-1.8076,-1.8015,-1.8076,-1.8076,-1.8076,-1.8075,-1.8075,0,-1.8506,-1.8479,-1.8463,-1.8429,-1.8414,-1.8381,-1.8351,-1.8341,-1.8327,-1.8298,-1.8279,-1.8257,-1.8235,-1.8194,-1.8168,-1.8165,-1.8148,-1.816,-1.816,-1.8154,-1.8095,-1.8094,-1.8175,-1.8175,-1.8175,-1.8175,-1.8175,-1.8175,-1.8544,-1.854,-1.8513,-1.8496,-1.847,-1.8453,-1.8439,-1.8418,-1.8394,-1.8371,-1.8353,-1.8326,-1.8291,-1.8263,-1.8242,-1.823,-1.8222,-1.824,-1.8223,-1.8168,-1.8159,-1.815,-1.8149,-1.8239,-1.8239,-1.8283,-1.8284,-1.8284]},{"header":{"parameterUnit":"m.s-1","parameterCategory":1,"la1":30.2991,"la2":30.254,"lo1":-89.0895,"lo2":-89.0444,"dy":0.0017,"dx":0.0017,"nx":28,"ny":28,"refTime":"2024-07-18T21:00:00:Z","depth":0,"parameterNumber":3,"parameterNumberName":"V-component_of_WINDS"},"data":[0,0,0,0,0,0,0,0,0,0,0,0,0,0,0,0,0,0,0,0,0,0,0,0,0,0,0,0,0,0,0,0,0,0,0,0,0,0,0,0,0,0,0,0,0,0,0,0,0,0,0,0,0,0,0,0,0,0,2.787,2.7871,0,2.7914,2.7915,2.7915,2.7939,2.7939,2.7939,2.7939,2.7983,2.7984,2.7985,0,0,0,0,0,0,0,0,0,0,0,0,0,2.7806,2.7807,2.787,2.7871,2.7871,2.7914,2.7915,2.7916,2.7939,2.7939,2.7939,2.7939,2.7983,2.7984,2.7985,0,0,0,0,0,0,0,0,0,0,0,0,0,2.784,2.7807,2.787,2.7888,2.789,2.7914,2.7915,2.7916,2.7939,2.7939,2.7939,2.7939,2.7982,2.7984,2.7986,2.7995,0,0,2.7991,2.7992,0,0,0,0,0,0,0,0,2.7838,2.7842,2.7885,2.7887,2.7889,2.7921,2.7908,2.7942,2.7939,2.792,2.7939,2.7939,2.7962,2.7966,2.7974,2.7997,2.7999,2.7991,2.7992,2.7993,2.7993,0,0,0,0,0,0,0,2.7836,2.7841,2.7888,2.7886,2.7888,2.7894,2.7899,2.7915,2.794,2.7922,2.7924,2.7929,2.7964,2.7972,2.7975,2.7999,2.7991,2.7992,2.7993,2.7994,2.8033,2.8033,0,0,0,0,0,0,2.7831,2.7839,2.7886,2.7889,2.7863,2.7895,2.7901,2.7911,2.794,2.7945,2.7929,2.793,2.7969,2.7973,2.7977,2.799,2.7993,2.7994,2.7995,2.8033,2.8033,2.8033,0,0,0,0,0,0,2.7829,2.7835,2.7884,2.7864,2.7871,2.7896,2.7907,2.7912,2.792,2.7945,2.795,2.7933,2.7969,2.7974,2.799,2.7992,2.7995,2.7997,2.8033,2.8033,2.8033,2.8016,0,0,0,0,0,0,2.7827,2.7834,2.7838,2.7864,2.7872,2.7897,2.7908,2.7913,2.7923,2.7925,2.795,2.7955,2.797,2.7988,2.7992,2.7994,2.7998,2.8033,2.8033,2.8033,2.8017,2.8016,2.8015,0,0,0,0,0,2.7825,2.7831,2.7838,2.7843,2.7877,2.7897,2.7902,2.792,2.7923,2.7927,2.7944,2.7954,2.7991,2.7989,2.7994,2.7997,2.8033,2.8033,2.8033,2.8017,2.8016,2.8015,0,0,0,0,0,0,2.7803,2.7834,2.7843,2.7857,2.7875,2.7901,2.7907,2.7917,2.7934,2.7935,2.7956,2.7961,2.7976,2.7988,2.7985,2.8008,2.8013,2.8014,2.7999,2.7998,2.7997,2.7994,2.7999,0,0,0,0,0,2.78,2.7814,2.784,2.7851,2.7859,2.7882,2.7891,2.7903,2.7922,2.7929,2.7947,2.7964,2.798,2.799,2.8005,2.8019,2.8025,2.8023,2.8022,2.8021,2.8022,2.8031,2.803,2.8033,2.8033,2.8033,0,0,2.7793,2.7812,2.782,2.7847,2.7862,2.7876,2.7887,2.7902,2.7912,2.7931,2.7948,2.7961,2.7982,2.7997,2.8005,2.8008,2.8022,2.8021,2.802,2.8021,2.8031,2.803,2.803,2.8033,2.8033,2.8033,0,0,2.7789,2.7805,2.7815,2.783,2.7853,2.7868,2.7871,2.7896,2.7906,2.7923,2.7938,2.7951,2.7977,2.7992,2.8003,2.8005,2.8016,2.801,2.8005,2.8013,2.8013,2.8013,2.8014,2.8014,2.8011,2.8011,2.8011,0,2.7778,2.78,2.7819,2.7833,2.7845,2.7864,2.7875,2.7888,2.7915,2.7922,2.7926,2.796,2.7976,2.7995,2.7995,2.8003,2.8007,2.8007,2.8011,2.8011,2.8011,2.8013,2.8013,2.801,2.801,2.801,2.801,0,2.7786,2.7801,2.7807,2.7833,2.7845,2.7857,2.7879,2.7889,2.7901,2.7915,2.7933,2.7952,2.7973,2.7978,2.7989,2.7999,2.8,2.8007,2.8013,2.801,2.8012,2.8013,2.8009,2.8009,2.8009,2.8009,0,0,2.7768,2.7805,2.7807,2.782,2.7847,2.7859,2.7872,2.7893,2.7901,2.7919,2.7931,2.7954,2.7961,2.7973,2.7986,2.7993,2.7995,2.7999,2.8,2.7998,2.8008,2.8002,2.8003,2.8002,2.8002,2.8002,2.8006,0,2.7768,2.7793,2.7811,2.783,2.7844,2.7863,2.7874,2.7892,2.7907,2.7921,2.7937,2.7953,2.796,2.7968,2.7976,2.7993,2.7997,2.7993,2.8013,2.8014,2.8008,2.8004,2.7998,2.8001,2.8007,2.8007,2.8007,0,2.777,2.7789,2.7808,2.7835,2.7842,2.7852,2.7873,2.7886,2.7907,2.7917,2.7932,2.7945,2.796,2.7965,2.7987,2.7983,2.7993,2.8003,2.8003,2.8006,2.801,2.8006,2.8002,2.8002,2.8008,2.8008,2.8008,0,2.7756,2.7785,2.7801,2.7811,2.7842,2.7849,2.7863,2.7884,2.7895,2.7913,2.7921,2.7941,2.7951,2.7966,2.7985,2.7986,2.8005,2.8011,2.8014,2.8013,2.8017,2.8016,2.8014,2.8022,2.8022,2.8022,2.8022,0,2.7754,2.7765,2.7795,2.7805,2.7819,2.784,2.7853,2.7868,2.7887,2.79,2.7917,2.7928,2.7952,2.7967,2.7982,2.7998,2.8002,2.8011,2.8015,2.801,2.8009,2.8016,2.8017,2.8023,2.8023,2.8022,2.8022,0,2.774,2.776,2.7779,2.7807,2.7815,2.7824,2.7848,2.7858,2.7874,2.789,2.7895,2.792,2.7939,2.7959,2.7984,2.7994,2.8009,2.8014,2.8002,2.8004,2.8006,2.8006,2.8009,2.8011,2.8018,2.8017,2.8017,0,2.7737,2.7746,2.7776,2.7787,2.78,2.7816,2.7828,2.7849,2.7861,2.7887,2.7894,2.7914,2.7931,2.796,2.798,2.7999,2.8005,2.8005,2.8008,2.8003,2.8006,2.8005,2.8006,2.8004,2.8004,2.8004,2.8003,0,2.773,2.774,2.7757,2.7778,2.7793,2.781,2.7828,2.7835,2.7861,2.7873,2.7893,2.7906,2.7932,2.7952,2.7974,2.7988,2.8,2.8002,2.8004,2.7999,2.7992,2.7996,2.8,2.8002,2.8002,2.8002,2.8002,2.8003,2.7722,2.7732,2.7754,2.7773,2.7789,2.7806,2.7817,2.7835,2.7852,2.7875,2.7887,2.7906,2.7928,2.7959,2.7973,2.7988,2.7992,2.7994,2.7995,2.7995,2.7994,2.7989,2.7992,2.7992,2.7992,2.7993,2.7993,0,2.7716,2.7732,2.7749,2.7775,2.7789,2.78,2.7821,2.7833,2.785,2.7869,2.7886,2.7909,2.7928,2.795,2.7971,2.798,2.7986,2.7985,2.7984,2.7987,2.799,2.7986,2.7979,2.7979,2.7979,2.7979,2.7979,2.7979,2.7715,2.7732,2.7745,2.7771,2.7787,2.7806,2.7817,2.7833,2.7849,2.7874,2.789,2.7905,2.7925,2.7948,2.7967,2.7973,2.798,2.7977,2.7984,2.7986,2.7987,2.7988,2.7985,2.7978,2.7978,2.7981,2.7981,2.7981]}]]